CW9236 Weather Reports


time (UTC)temp
C
wind
direction
speed
KPH
gust
KPH
rain 1hr
cm
rain 24hr
cm
rain mn
cm
humidity
%
barometer
mb
20260509234008 30 247 0.0 1.6 0.00 0.00 0.00 64 1008.3
20260509233025 30 247 0.0 3.2 0.00 0.00 0.00 63 1008.4
20260509231010 30 247 0.0 0.0 0.00 0.00 0.00 66 1008.2
20260509230509 30 247 0.0 1.6 0.00 0.00 0.00 64 1008.2
20260509230026 30 247 0.0 1.6 0.00 0.00 0.00 63 1008.2
20260509225507 30 247 0.0 1.6 0.00 0.00 0.00 62 1008.1
20260509225010 30 247 0.0 1.6 0.00 0.00 0.00 61 1008.0
20260509224517 30 247 0.0 1.6 0.00 0.00 0.00 63 1008.0
20260509223511 30 247 0.0 3.2 0.00 0.00 0.00 63 1008.1
20260509222508 31 247 1.6 4.8 0.00 0.00 0.00 60 1008.1
20260509222011 31 247 0.0 3.2 0.00 0.00 0.00 61 1008.1
20260509221530 31 247 0.0 4.8 0.00 0.00 0.00 62 1007.9
20260509221015 31 247 1.6 6.4 0.00 0.00 0.00 60 1008.0
20260509220515 31 247 1.6 6.4 0.00 0.00 0.00 60 1008.0
20260509220029 31 247 1.6 6.4 0.00 0.00 0.00 60 1007.9
20260509215508 31 246 0.0 4.8 0.00 0.00 0.00 61 1008.0
20260509215012 31 108 0.0 4.8 0.00 0.00 0.00 60 1008.1
20260509214518 31 246 0.0 4.8 0.00 0.00 0.00 59 1008.0
20260509213509 31 246 0.0 4.8 0.00 0.00 0.00 60 1007.9
20260509213025 31 245 0.0 6.4 0.00 0.00 0.00 60 1008.0
20260509212511 31 245 0.0 6.4 0.00 0.00 0.00 59 1008.1
20260509212011 31 79 0.0 3.2 0.00 0.00 0.00 63 1008.1
20260509211534 30 83 0.0 3.2 0.00 0.00 0.00 62 1008.2
20260509211008 30 94 0.0 3.2 0.00 0.00 0.00 60 1008.2
20260509210516 31 130 0.0 4.8 0.00 0.00 0.00 61 1008.2
20260509210027 31 123 0.0 4.8 0.00 0.00 0.00 60 1008.2
20260509205511 31 246 0.0 3.2 0.00 0.00 0.00 62 1008.4
20260509205007 31 246 0.0 3.2 0.00 0.00 0.00 62 1008.5
20260509204520 30 246 0.0 4.8 0.00 0.00 0.00 62 1008.7
20260509204009 30 246 0.0 6.4 0.00 0.00 0.00 63 1008.8
20260509203508 30 246 1.6 6.4 0.00 0.00 0.00 61 1008.9
20260509203026 30 344 0.0 6.4 0.00 0.00 0.00 66 1008.9
20260509202508 30 107 0.0 6.4 0.00 0.00 0.00 66 1008.9
20260509202006 30 285 0.0 4.8 0.00 0.00 0.00 64 1009.0
20260509201511 30 285 0.0 6.4 0.00 0.00 0.00 64 1009.0
20260509201003 30 285 0.0 6.4 0.00 0.00 0.00 64 1008.9
20260509200504 30 284 0.0 6.4 0.00 0.00 0.00 65 1009.0
20260509200015 30 282 0.0 9.7 0.00 0.00 0.00 66 1009.1
20260509195513 30 281 0.0 9.7 0.00 0.00 0.00 66 1009.2
20260509195008 30 285 3.2 6.4 0.00 0.00 0.00 65 1009.1
20260509194524 30 287 0.0 6.4 0.00 0.00 0.00 69 1009.2
20260509194011 30 284 0.0 6.4 0.00 0.00 0.00 67 1009.2
20260509193503 30 283 1.6 4.8 0.00 0.00 0.00 67 1009.3
20260509193007 30 319 0.0 6.4 0.00 0.00 0.00 70 1009.3
20260509192507 30 280 0.0 6.4 0.00 0.00 0.00 71 1009.3
20260509192009 30 280 1.6 6.4 0.00 0.00 0.00 70 1009.5
20260509191516 30 279 0.0 4.8 0.00 0.00 0.00 70 1009.6
20260509191011 29 279 0.0 9.7 0.00 0.00 0.00 72 1009.6
20260509190019 28 279 0.0 6.4 0.00 0.00 0.00 71 1009.5
20260509184530 29 246 1.6 4.8 0.00 0.00 0.00 68 1009.7
20260509184008 30 246 0.0 3.2 0.00 0.00 0.00 74 1009.9
20260509181514 28 80 1.6 4.8 0.00 0.00 0.00 73 1010.1
20260509181011 28 66 1.6 4.8 0.00 0.00 0.00 74 1010.3
20260509180508 28 284 1.6 4.8 0.00 0.00 0.00 72 1010.5
20260509175508 28 338 0.0 4.8 0.00 0.00 0.00 74 1010.6
20260509175008 28 61 0.0 4.8 0.00 0.00 0.00 76 1010.8
20260509174528 28 82 1.6 4.8 0.00 0.00 0.00 75 1010.8
20260509174005 28 82 1.6 4.8 0.00 0.00 0.00 74 1010.8
20260509173506 28 69 1.6 6.4 0.00 0.00 0.00 74 1010.7
20260509173024 28 53 1.6 9.7 0.00 0.00 0.00 76 1010.6
20260509172512 28 74 3.2 9.7 0.00 0.00 0.00 76 1010.8
20260509172008 28 87 0.0 6.4 0.00 0.00 0.00 77 1010.8
20260509171516 28 47 1.6 8.0 0.00 0.00 0.00 73 1010.8
20260509171009 28 57 3.2 8.0 0.00 0.00 0.00 77 1010.6
20260509170506 28 65 1.6 4.8 0.00 0.00 0.00 76 1010.5
20260509170023 28 84 1.6 4.8 0.00 0.00 0.00 78 1010.6
20260509165510 27 72 0.0 4.8 0.00 0.00 0.00 79 1010.6
20260509165008 27 63 1.6 4.8 0.00 0.00 0.00 80 1010.5
20260509164525 27 71 1.6 6.4 0.00 0.00 0.00 80 1010.6
20260509164006 26 85 1.6 6.4 0.00 0.00 0.00 83 1010.7
20260509163510 26 73 1.6 6.4 0.00 0.00 0.00 82 1010.8
20260509163015 26 253 1.6 4.8 0.00 0.00 0.00 84 1010.9
20260509162507 26 253 0.0 3.2 0.00 0.00 0.00 86 1010.9
20260509162008 25 253 0.0 3.2 0.00 0.00 0.00 86 1011.0
20260509161520 25 253 0.0 3.2 0.00 0.00 0.00 87 1011.2
20260509161009 25 253 0.0 3.2 0.00 0.00 0.00 87 1011.3
20260509160507 25 253 0.0 3.2 0.00 0.00 0.00 87 1011.2
20260509160022 25 253 0.0 3.2 0.00 0.00 0.00 87 1011.3
20260509155510 25 253 0.0 4.8 0.00 0.00 0.00 87 1011.4
20260509155010 25 253 0.0 4.8 0.00 0.00 0.00 87 1011.3
20260509154526 25 253 0.0 3.2 0.00 0.00 0.00 87 1011.3
20260509154009 25 253 0.0 4.8 0.00 0.00 0.00 87 1011.3
20260509153506 25 253 0.0 4.8 0.00 0.00 0.00 87 1011.4
20260509153015 25 253 0.0 0.0 0.00 0.00 0.00 87 1011.4
20260509152512 25 252 0.0 1.6 0.00 0.00 0.00 87 1011.4
20260509152008 25 252 0.0 4.8 0.00 0.00 0.00 87 1011.4
20260509151522 25 252 1.6 4.8 0.00 0.00 0.00 88 1011.2
20260509151006 25 253 0.0 3.2 0.00 0.00 0.00 88 1011.1
20260509150509 25 253 0.0 3.2 0.00 0.00 0.00 89 1011.1
20260509150022 25 136 0.0 1.6 0.00 0.00 0.00 89 1011.0
20260509145510 25 144 0.0 1.6 0.00 0.00 0.00 90 1010.8
20260509145011 24 148 0.0 1.6 0.00 0.00 0.00 90 1010.8
20260509144510 24 146 0.0 1.6 0.00 0.00 0.00 91 1010.6
20260509144008 24 198 0.0 0.0 0.00 0.00 0.00 92 1010.5
20260509143508 24 198 0.0 0.0 0.00 0.00 0.00 93 1010.6
20260509143018 23 223 0.0 0.0 0.00 0.00 0.00 94 1010.5
20260509142508 23 226 0.0 1.6 0.00 0.00 0.00 94 1010.6
20260509142004 23 222 0.0 1.6 0.00 0.00 0.00 94 1010.7
20260509141508 23 179 0.0 0.0 0.00 0.00 0.00 94 1010.6
20260509141007 23 158 0.0 0.0 0.00 0.00 0.00 94 1010.4
20260509140503 23 146 0.0 0.0 0.00 0.00 0.00 94 1010.3
20260509140009 23 146 0.0 1.6 0.00 0.00 0.00 94 1010.0
20260509135008 23 144 0.0 1.6 0.00 0.00 0.00 94 1010.6
20260509134517 23 144 0.0 1.6 0.00 0.00 0.00 94 1010.6
20260509134009 23 144 0.0 1.6 0.00 0.00 0.00 94 1010.7
20260509133516 23 144 0.0 1.6 0.00 0.00 0.00 94 1010.7
20260509133006 23 144 0.0 1.6 0.00 0.00 0.00 94 1010.7
20260509130504 23 288 0.0 3.2 0.00 0.00 0.00 94 1011.3
20260509125508 23 59 0.0 3.2 0.00 0.00 0.00 94 1011.0
20260509125009 23 59 0.0 3.2 0.00 0.00 0.00 94 1010.8
20260509124007 23 57 0.0 1.6 0.00 0.00 0.00 94 1010.8
20260509123007 23 51 0.0 1.6 0.00 0.00 0.00 94 1010.7
20260509122505 23 49 0.0 1.6 0.00 0.00 0.00 94 1010.7
20260509122004 22 32 0.0 1.6 0.00 0.00 0.00 94 1010.7
20260509121506 22 32 0.0 1.6 0.00 0.00 0.00 94 1010.6
20260509121003 22 30 0.0 0.0 0.00 0.00 0.00 94 1010.6
20260509120507 22 30 0.0 0.0 0.00 0.00 0.00 94 1010.6
20260509120012 22 30 0.0 0.0 0.00 0.00 0.00 94 1010.5
20260509115504 22 28 0.0 0.0 0.00 0.00 0.00 94 1010.2
20260509115010 22 28 0.0 0.0 0.00 0.00 0.00 94 1010.2
20260509114519 22 288 0.0 0.0 0.00 0.00 0.00 94 1010.4
20260509114011 23 288 0.0 0.0 0.00 0.00 0.00 94 1010.6
20260509113504 22 288 0.0 0.0 0.00 0.00 0.00 94 1010.6
20260509113007 23 288 0.0 0.0 0.00 0.00 0.00 94 1010.7
20260509112503 23 288 0.0 0.0 0.00 0.00 0.00 94 1010.8
20260509112004 23 288 0.0 0.0 0.00 0.00 0.00 94 1010.9
20260509111509 23 288 0.0 0.0 0.00 0.00 0.00 94 1010.8
20260509111006 22 300 0.0 0.0 0.00 0.00 0.00 94 1010.7
20260509110504 23 300 0.0 3.2 0.00 0.00 0.00 94 1010.7
20260509110021 23 319 0.0 3.2 0.00 0.00 0.00 94 1010.8
20260509105508 23 288 0.0 3.2 0.00 0.00 0.00 94 1010.9
20260509105009 22 289 0.0 3.2 0.00 0.00 0.00 94 1010.7
20260509104522 22 288 0.0 0.0 0.00 0.00 0.00 93 1010.4
20260509104009 22 288 0.0 1.6 0.00 0.00 0.00 93 1010.2
20260509103502 23 288 0.0 3.2 0.00 0.00 0.00 93 1010.2
20260509103009 23 288 0.0 3.2 0.00 0.00 0.00 93 1010.4
20260509102504 23 290 0.0 3.2 0.00 0.00 0.00 93 1010.3
20260509102008 23 287 0.0 3.2 0.00 0.00 0.00 93 1010.3
20260509101511 23 302 0.0 3.2 0.00 0.00 0.00 93 1010.2
20260509101004 23 75 0.0 1.6 0.00 0.00 0.00 93 1010.1
20260509100507 23 75 0.0 1.6 0.00 0.00 0.00 93 1009.9
20260509100023 23 75 0.0 3.2 0.00 0.00 0.00 93 1009.5
20260509095507 23 82 0.0 3.2 0.00 0.00 0.00 93 1009.4
20260509095014 23 61 0.0 1.6 0.00 0.00 0.00 93 1009.5
20260509094524 23 61 0.0 0.0 0.00 0.00 0.00 93 1009.6
20260509094009 23 61 0.0 0.0 0.00 0.00 0.00 93 1009.7
20260509093504 23 61 0.0 0.0 0.00 0.00 0.00 93 1009.8
20260509093006 23 61 0.0 0.0 0.00 0.00 0.00 93 1009.9
20260509092507 23 61 0.0 0.0 0.00 0.00 0.00 93 1010.0
20260509092007 23 61 0.0 0.0 0.00 0.00 0.00 93 1010.1
20260509091515 23 61 0.0 0.0 0.00 0.00 0.00 93 1010.2
20260509091007 23 61 0.0 0.0 0.00 0.00 0.00 93 1010.2
20260509090510 23 61 0.0 0.0 0.00 0.00 0.00 93 1010.2
20260509090024 23 61 0.0 0.0 0.00 0.00 0.00 93 1010.3
20260509085506 23 61 0.0 0.0 0.00 0.00 0.00 93 1010.2
20260509085006 23 61 0.0 0.0 0.00 0.00 0.00 93 1010.2
20260509084533 23 61 0.0 0.0 0.00 0.00 0.00 93 1010.2
20260509084005 23 61 0.0 0.0 0.00 0.00 0.00 93 1010.3
20260509083503 23 61 0.0 0.0 0.00 0.00 0.00 93 1010.4
20260509083021 23 61 0.0 0.0 0.00 0.00 0.00 93 1010.4
20260509082509 23 61 0.0 1.6 0.00 0.00 0.00 93 1010.3
20260509082006 23 61 0.0 1.6 0.00 0.00 0.00 93 1010.3
20260509081518 23 77 0.0 1.6 0.00 0.00 0.00 93 1010.2
20260509081008 23 77 0.0 1.6 0.00 0.00 0.00 93 1010.1
20260509074524 23 82 0.0 3.2 0.00 0.00 0.00 93 1010.3
20260509074004 23 90 0.0 3.2 0.00 0.00 0.00 93 1010.2
20260509071517 23 86 1.6 6.4 0.00 0.00 0.00 93 1010.0
20260509065508 23 83 0.0 3.2 0.00 0.00 0.00 93 1010.2
20260509064006 23 73 0.0 3.2 0.00 0.00 0.00 93 1010.3
20260509063508 23 80 0.0 3.2 0.00 0.00 0.00 93 1010.4
20260509063013 23 80 0.0 3.2 0.00 0.00 0.00 93 1010.4
20260509062509 23 77 0.0 3.2 0.00 0.00 0.00 93 1010.5
20260509062009 23 87 0.0 1.6 0.00 0.00 0.00 93 1010.6
20260509061522 23 88 0.0 3.2 0.00 0.00 0.00 93 1010.7
20260509061007 23 86 0.0 3.2 0.00 0.00 0.00 93 1010.7
20260509060508 22 85 0.0 3.2 0.00 0.00 0.00 93 1010.8
20260509060025 22 84 0.0 3.2 0.00 0.00 0.00 93 1010.9
20260509055510 22 84 0.0 3.2 0.00 0.00 0.00 93 1010.9
20260509055012 22 76 0.0 3.2 0.00 0.00 0.00 93 1010.9
20260509054510 22 83 0.0 4.8 0.00 0.00 0.00 93 1010.7
20260509054005 22 74 0.0 4.8 0.00 0.00 0.00 93 1010.7
20260509053507 22 87 1.6 6.4 0.00 0.00 0.00 93 1010.7
20260509053016 22 87 0.0 6.4 0.00 0.00 0.00 93 1010.7
20260509052508 22 80 0.0 3.2 0.00 0.00 0.00 93 1010.8
20260509052008 22 71 0.0 4.8 0.00 0.00 0.00 93 1010.8
20260509051521 22 86 0.0 4.8 0.00 0.00 0.00 93 1010.7
20260509051009 22 96 0.0 4.8 0.00 0.00 0.00 93 1010.7
20260509050509 22 82 0.0 6.4 0.00 0.00 0.00 93 1010.7
20260509050035 22 88 1.6 6.4 0.00 0.00 0.00 93 1010.7
20260509045512 22 72 1.6 4.8 0.00 0.00 0.00 93 1010.7
20260509045011 22 91 1.6 4.8 0.00 0.00 0.00 93 1010.9
20260509044511 22 79 1.6 4.8 0.00 0.00 0.00 93 1010.9
20260509044012 22 86 1.6 4.8 0.00 0.00 0.00 93 1010.9
20260509043507 22 79 0.0 6.4 0.00 0.00 0.00 93 1010.9
20260509043018 22 88 1.6 6.4 0.00 0.00 0.00 93 1010.9
20260509042509 22 88 1.6 4.8 0.00 0.00 0.00 93 1010.9
20260509042008 22 97 1.6 4.8 0.00 0.00 0.00 93 1011.0
20260509041522 22 86 1.6 4.8 0.00 0.00 0.00 92 1011.0
20260509041007 22 82 1.6 4.8 0.00 0.00 0.00 92 1010.9
20260509040507 22 81 0.0 4.8 0.00 0.00 0.00 92 1010.7
20260509040023 22 81 0.0 4.8 0.00 0.00 0.00 92 1010.6
20260509035507 22 83 0.0 3.2 0.00 0.00 0.00 92 1010.5
20260509035009 22 84 0.0 11.3 0.00 0.00 0.00 92 1010.4
20260509034514 22 85 1.6 11.3 0.00 0.00 0.00 92 1010.4
20260509034007 22 84 3.2 9.7 0.00 0.00 0.00 92 1010.4
20260509033507 22 85 3.2 9.7 0.00 0.00 0.00 92 1010.2
20260509033018 22 83 3.2 6.4 0.00 0.00 0.00 92 1010.1
20260509032512 22 90 1.6 11.3 0.00 0.00 0.00 92 1010.2
20260509032011 22 71 1.6 12.9 0.00 0.00 0.00 92 1010.3
20260509031526 22 90 3.2 12.9 0.00 0.00 0.00 92 1010.3
20260509031012 22 69 4.8 12.9 0.00 0.00 0.00 91 1010.3
20260509030511 22 82 4.8 9.7 0.00 0.00 0.00 91 1010.3
20260509030036 22 83 3.2 11.3 0.00 0.00 0.00 91 1010.2
20260509025507 22 86 3.2 11.3 0.00 0.00 0.00 91 1010.3
20260509025007 22 91 0.0 9.7 0.00 0.00 0.00 91 1010.3
20260509023509 22 94 3.2 9.7 0.00 0.00 0.00 91 1009.9
20260509023027 22 105 4.8 9.7 0.00 0.00 0.00 91 1009.8
20260509022511 22 71 3.2 11.3 0.00 0.00 0.00 91 1009.9
20260509022009 22 73 1.6 11.3 0.00 0.00 0.00 91 1009.9
20260509021526 22 88 4.8 11.3 0.00 0.00 0.00 91 1009.8
20260509021010 22 91 3.2 9.7 0.00 0.00 0.00 90 1009.7
20260509020514 22 79 3.2 11.3 0.00 0.00 0.00 90 1009.7
20260509020027 22 81 3.2 11.3 0.00 0.00 0.00 90 1009.6
20260509015507 22 87 3.2 8.0 0.00 0.00 0.00 90 1009.7
20260509015009 22 85 3.2 8.0 0.00 0.00 0.00 90 1009.8
20260509014010 22 86 1.6 6.4 0.00 0.00 0.00 90 1009.7
20260509013509 22 86 3.2 6.4 0.00 0.00 0.00 90 1009.6
20260509012510 22 86 1.6 9.7 0.00 0.00 0.00 90 1009.7
20260509012012 22 85 3.2 9.7 0.00 0.00 0.00 90 1009.7
20260509011526 22 78 3.2 9.7 0.00 0.00 0.00 90 1009.7
20260509011012 22 79 1.6 12.9 0.00 0.00 0.00 90 1009.6
20260509010513 22 85 3.2 12.9 0.00 0.00 0.00 90 1009.4
20260509010026 22 79 3.2 9.7 0.00 0.00 0.00 90 1009.4
20260509005508 22 90 1.6 6.4 0.00 0.00 0.00 90 1009.5
20260509005010 22 96 3.2 9.7 0.00 0.00 0.00 89 1009.4
20260509004531 22 74 3.2 9.7 0.00 0.00 0.00 89 1009.4
20260509004011 22 83 3.2 9.7 0.00 0.00 0.00 89 1009.4
20260509003511 22 84 3.2 8.0 0.00 0.00 0.00 89 1009.4
20260509003021 23 84 3.2 11.3 0.00 0.00 0.00 89 1009.4
20260509002511 23 83 3.2 12.9 0.00 0.00 0.00 89 1009.3
20260509002011 23 86 4.8 12.9 0.00 0.00 0.00 89 1009.2
20260509001526 23 83 4.8 9.7 0.00 0.00 0.00 89 1009.2
20260509001009 23 90 3.2 9.7 0.00 0.00 0.00 89 1009.3
20260509000510 23 87 3.2 9.7 0.00 0.00 0.00 88 1009.4
20260509000035 23 79 1.6 6.4 0.00 0.00 0.00 88 1009.5
20260508235510 23 85 1.6 9.7 0.00 0.00 0.00 88 1009.5
20260508235007 23 87 3.2 9.7 0.00 0.00 0.00 88 1009.6